Regional Weather Roundup
Issued by NWS Northern Indiana

Home | Current Version | Previous Version | Text Only | Print | Product List | Glossary On
Versions: 1 2 3 4 5 6 7 8 9 10 11 12 13 14 15 16 17 18 19 20 21 22 23 24 25 26 27 28 29 30 31 32 33 34 35 36 37 38 39 40 41 42 43 44 45 46 47 48 49 50
000
ASUS43 KIWX 230600
RWRIWX

KIWX WEATHER ROUNDUP
NATIONAL WEATHER SERVICE NORTHERN INDIANA
100 AM EST THU FEB 23 2017

NOTE: "FAIR" INDICATES FEW OR NO CLOUDS BELOW 12,000 FEET WITH NO
SIGNIFICANT WEATHER AND/OR OBSTRUCTIONS TO VISIBILITY.

* THESE STATIONS ARE NOT UNDER NWS QUALITY CONTROL. THEY ALSO MAY NOT
  REPORT WEATHER SUCH AS PRECIPITATION OR FOG.

INZ001>027-230700-
NORTHERN INDIANA

CITY           SKY/WX    TMP DP  RH WIND       PRES   REMARKS
GARY*          PTCLDY    59  53  81 SW7       29.65R
MICHIGAN CITY* CLEAR     55  54  94 SW10G17   29.65S
KNOX*          CLEAR     55  37  50 SW13G18   29.67S
SOUTH BEND     CLEAR     58  53  84 SW18G26   29.66S
6HR MIN TEMP:  56; 6HR MAX TEMP:  58;

GOSHEN         PTCLDY    57  51  80 S16       29.66F
6HR MIN TEMP:  56; 6HR MAX TEMP:  58;

WARSAW*        PTCLDY    55  52  88 SW8       29.68F
ANGOLA*        PTCLDY    57  48  72 SW12      29.67F
FORT WAYNE     PTCLDY    54  51  90 S12       29.71F
6HR MIN TEMP:  53; 6HR MAX TEMP:  58;

PERU/GRISSOM   CLEAR     55  55 100 S12       29.70F
6HR MIN TEMP:  54; 6HR MAX TEMP:  58;


$$
INZ028>050-230700-
CENTRAL INDIANA

CITY           SKY/WX    TMP DP  RH WIND       PRES   REMARKS
LAFAYETTE      PTCLDY    58  53  84 SW7       29.71S
6HR MIN TEMP:  57; 6HR MAX TEMP:  62;

KOKOMO*        PTCLDY    55  53  93 S12       29.73S
6HR MIN TEMP:  53; 6HR MAX TEMP:  58;

MUNCIE*        CLEAR     59  53  80 SW8       29.75R
6HR MIN TEMP:  59; 6HR MAX TEMP:  62;

INDIANAPOLIS   PTCLDY    57  53  86 S9        29.75R
6HR MIN TEMP:  57; 6HR MAX TEMP:  62;


$$
MIZ043>046-050>051-056>058-064>065-071>073-077>080-230700-
SOUTHWEST LOWER MICHIGAN

CITY           SKY/WX    TMP DP  RH WIND       PRES   REMARKS
BATTLE CREEK   MOCLDY    57  54  89 S15       29.64F
6HR MIN TEMP:  55; 6HR MAX TEMP:  58;

BENTON HARBOR  CLEAR     62  53  72 SW16G31   29.62S
6HR MIN TEMP:  58; 6HR MAX TEMP:  62;

COLDWATER*     MOCLDY    58  55  89 S12G18    29.66F
6HR MIN TEMP:  56; 6HR MAX TEMP:  59;

HILLSDALE*     PTCLDY    54  52  94 S12       29.67F FOG
HOLLAND        CLEAR     60  54  80 SW25G35   29.59S
6HR MIN TEMP:  57; 6HR MAX TEMP:  61;

GRAND RAPIDS   PTCLDY    57  52  83 SW15      29.59F
6HR MIN TEMP:  56; 6HR MAX TEMP:  59;

KALAMAZOO      CLEAR     57  52  83 S14       29.64S
6HR MIN TEMP:  54; 6HR MAX TEMP:  59;

STURGIS*       CLOUDY    56  53  91 SW15      29.65S
6HR MIN TEMP:  54; 6HR MAX TEMP:  56;

THREE RIVERS*  FAIR      56  53  89 SW9       29.65S
6HR MIN TEMP:  54; 6HR MAX TEMP:  56;


$$
OHZ001>008-015>018-024>025-230700-
NORTHWEST OHIO

CITY           SKY/WX    TMP DP  RH WIND       PRES   REMARKS
DEFIANCE       CLOUDY    56  53  90 S10       29.71S FOG
6HR MIN TEMP:  54; 6HR MAX TEMP:  59;

FINDLAY        MOCLDY    57  52  83 S12       29.73R
6HR MIN TEMP:  55; 6HR MAX TEMP:  60;

TOLEDO EXPRESS CLOUDY    57  56  96 S8        29.70S FOG
6HR MIN TEMP:  56; 6HR MAX TEMP:  60;

TOLEDO METCALF CLOUDY    57  55  93 S13       29.71F FOG
6HR MIN TEMP:  56; 6HR MAX TEMP:  60;

LIMA           CLEAR     56  55  97 S9        29.74S
6HR MIN TEMP:  56; 6HR MAX TEMP:  59;


$$
AND FOR LAKE MICHIGAN COASTAL AND OPEN LAKE BUOY OBSERVATIONS

STATION/POSITION TEMP    WIND        PRES    VSBY  WAVE
                 AIR SEA DIR/SP/G                  HT/PER
                 (F)     (DEG/KT/KT) (MB)    (MI)  (FT/S)
CALUMET HARBOR    57     210/  8/ 11 1003.0R
MICHIGAN CITY     60     180/ 20/ 23   N/A
BURNS HARBOR      59     210/ 16/ 21 1004.1R

$$
&&



USA.gov is the U.S. government's official web portal to all federal, state and local government web resources and services.